Regional Weather Roundup
Issued by NWS Sioux Falls, SD

Home | Current Version | Previous Version | Text Only | Print | Product List | Glossary On
Versions: 1 2 3 4 5 6 7 8 9 10 11 12 13 14 15 16 17 18 19 20 21 22 23 24 25 26 27 28 29 30 31 32 33 34 35 36 37 38 39 40 41 42 43 44 45 46 47 48 49 50
000
ASUS43 KFSD 241710
RWRFSD

WEATHER ROUNDUP FOR SE SOUTH DAKOTA/SW MINNESOTA/NW IOWA
NATIONAL WEATHER SERVICE SIOUX FALLS SD
1200 PM CDT THU APR 24 2014

NOTE: "FAIR" INDICATES FEW OR NO CLOUDS BELOW 12,000 FEET WITH NO
SIGNIFICANT WEATHER AND OR OBSTRUCTIONS TO VISIBILITY.


SDZ038>040-050-052>070-241800-
SOUTHEAST SOUTH DAKOTA

CITY           SKY/WX    TMP DP  RH WIND       PRES   REMARKS
CHAMBERLAIN      N/A     64  26  23 NW20G31   29.78S
HURON          SUNNY     63  35  35 NW13G21   29.73F
MADISON        FAIR      50  50 100 N18       29.73S
MITCHELL       SUNNY     63  34  33 N18G26    29.74F
SIOUX FALLS    PTSUNNY   53  46  77 N13       29.73R
WINNER         FAIR      65  21  18 NW22G35   29.80F
YANKTON        PTSUNNY   55  45  67 NW15G21   29.75F
$$

MNZ071-072-080-081-089-090-097-098-241800-
SOUTHWEST MINNESOTA

CITY           SKY/WX    TMP DP  RH WIND       PRES   REMARKS
FAIRMONT       CLOUDY    43  39  87 N3        29.70F
JACKSON        CLOUDY    45  41  87 NW6       29.69S FOG
LUVERNE        CLOUDY    50  45  81 N16       29.72R
MARSHALL       CLOUDY    45  39  81 N15       29.70F
MONTEVIDEO     LGT RAIN  43  43 100 NE5       29.73F
PIPESTONE      CLOUDY    48  45  87 N12G17    29.71R
REDWOOD FALLS  LGT RAIN  44  42  93 E5        29.70F FOG
TRACY          LGT RAIN  45  43  93 N12       29.70F
WINDOM         DRIZZLE   45  43  93 NW5       29.69S
WORTHINGTON    CLOUDY    46  39  76 N20       29.71R
$$

IAZ001>003-012>014-020>022-031-032-NEZ013-014-SDZ071-241800-
NORTHWEST IOWA

CITY           SKY/WX    TMP DP  RH WIND       PRES   REMARKS
CHEROKEE       CLOUDY    49  47  90 NW15      29.69R
DENISON        CLOUDY    50  48  93 NW12      29.70R
ESTHERVILLE    CLOUDY    44  44 100 NW6       29.68R FOG
LE MARS          N/A     54  48  82 N17G25    29.72R
ORANGE CITY    CLOUDY    52  45  76 N15       29.70S
SHELDON        CLOUDY    48  46  93 NW17      29.69S
SIOUX CITY     CLOUDY    57  50  77 NW20      29.71R
SPENCER        CLOUDY    47  43  86 NW13      29.70R
STORM LAKE     CLOUDY    48  46  93 NW18      29.69R
$$

ABBREVIATIONS USED IN REMARKS
   TC - TEMPERATURE IN CELSIUS
  WCI - WIND CHILL INDEX
   HX - HEAT INDEX
  VSB - VISIBILITY




USA.gov is the U.S. government's official web portal to all federal, state and local government web resources and services.